EW2835 Weather Reports


time (UTC)temp
F
wind
direction
speed
knots
gust
knots
rain 1hr
in
rain 24hr
in
rain mn
in
humidity
%
barometer
mb
20260510024510 42 97 0.0 0.0 0.00 0.00 0.00 95 1016.2
20260510023009 43 101 0.0 0.0 0.00 0.00 0.00 94 1016.2
20260510021521 43 67 0.0 3.5 0.00 0.00 0.00 95 1016.3
20260510020006 43 41 0.0 0.0 0.00 0.00 0.00 95 1016.5
20260510014506 44 41 0.0 2.6 0.00 0.00 0.00 95 1016.8
20260510013004 44 81 0.0 3.5 0.00 0.00 0.00 95 1016.6
20260510011500 43 90 0.0 3.5 0.00 0.00 0.00 95 1016.8
20260510004600 42 111 0.0 0.0 0.00 0.00 0.00 94 1017.3
20260510003056 42 111 0.0 0.0 0.00 0.00 0.00 93 1017.6
20260510001551 43 111 0.0 0.0 0.00 0.00 0.00 93 1017.9
20260510000056 43 111 0.0 0.9 0.00 0.00 0.00 93 1018.1
20260509234547 43 111 0.0 0.0 0.00 0.00 0.00 92 1018.1
20260509233045 43 111 0.0 0.0 0.00 0.00 0.00 92 1018.3
20260509231545 44 111 0.0 0.0 0.00 0.00 0.00 92 1018.5
20260509230042 44 111 0.0 0.0 0.00 0.00 0.00 91 1018.6
20260509224539 44 111 0.0 0.0 0.00 0.00 0.00 91 1018.6
20260509223037 45 111 0.0 0.0 0.00 0.00 0.00 90 1018.7
20260509221537 45 111 0.0 0.0 0.00 0.00 0.00 90 1018.8
20260509220034 45 111 0.0 0.0 0.00 0.00 0.00 89 1018.9
20260509214532 46 111 0.0 0.0 0.00 0.00 0.00 88 1018.8
20260509213034 46 111 0.0 0.0 0.00 0.00 0.00 88 1018.8
20260509211531 47 111 0.0 0.0 0.00 0.00 0.00 87 1018.8
20260509210034 47 111 0.0 0.0 0.00 0.00 0.00 85 1018.8
20260509204535 48 111 0.0 0.0 0.00 0.00 0.00 84 1019.0
20260509203029 49 111 0.0 0.0 0.00 0.00 0.00 82 1019.0
20260509201528 50 111 0.0 0.0 0.00 0.00 0.00 81 1019.0
20260509200027 50 111 0.0 0.0 0.00 0.00 0.00 80 1018.9
20260509194530 51 111 0.0 0.0 0.00 0.00 0.00 78 1018.8
20260509193030 53 99 0.0 0.9 0.00 0.00 0.00 76 1018.8
20260509191538 54 99 0.0 0.0 0.00 0.00 0.00 73 1018.7
20260509190029 55 99 0.0 0.0 0.00 0.00 0.00 69 1018.7
20260509184534 57 99 0.0 0.9 0.00 0.00 0.00 66 1018.4
20260509183030 57 99 0.0 1.7 0.00 0.00 0.00 63 1018.5
20260509181521 58 76 0.0 1.7 0.00 0.00 0.00 64 1018.5
20260509180020 58 109 0.0 2.6 0.00 0.00 0.00 60 1018.6
20260509174523 59 103 0.9 4.3 0.00 0.00 0.00 58 1018.6
20260509173019 60 59 1.7 4.3 0.00 0.00 0.00 57 1018.5
20260509171518 60 93 0.0 4.3 0.00 0.00 0.00 56 1018.5
20260509170022 60 76 1.7 5.2 0.00 0.00 0.00 56 1018.6
20260509164516 61 93 2.6 4.3 0.00 0.00 0.00 55 1018.7
20260509163022 61 147 3.5 7.8 0.00 0.00 0.00 54 1018.8
20260509160031 60 103 0.9 4.3 0.00 0.00 0.00 53 1019.2
20260509154527 61 93 0.9 3.5 0.00 0.00 0.00 54 1019.4
20260509153026 61 112 0.0 2.6 0.00 0.00 0.00 54 1019.5
20260509151520 61 58 1.7 4.3 0.00 0.00 0.00 52 1019.6
20260509150019 62 102 1.7 3.5 0.00 0.00 0.00 52 1019.6
20260509144524 61 106 0.9 4.3 0.00 0.00 0.00 53 1019.7
20260509143018 61 108 1.7 5.2 0.00 0.00 0.00 52 1019.7
20260509141516 61 159 0.0 2.6 0.00 0.00 0.00 55 1019.9
20260509140014 62 301 1.7 7.0 0.00 0.00 0.00 52 1019.9
20260509134510 62 36 0.9 4.3 0.00 0.00 0.00 51 1020.1
20260509133009 61 71 0.0 5.2 0.00 0.00 0.00 57 1020.3
20260509131509 61 159 0.9 2.6 0.00 0.00 0.00 53 1020.4
20260509130011 61 142 0.0 3.5 0.00 0.00 0.00 53 1020.5
20260509124505 63 186 1.7 5.2 0.00 0.00 0.00 50 1020.6
20260509123003 63 171 0.9 6.1 0.00 0.00 0.00 49 1020.7
20260509121501 61 90 0.9 5.2 0.00 0.00 0.00 51 1020.8
20260509120101 61 138 0.9 4.3 0.00 0.00 0.00 53 1020.9
20260509114606 61 136 1.7 5.2 0.00 0.00 0.00 52 1020.9
20260509113102 60 306 0.0 4.3 0.00 0.00 0.00 53 1020.9
20260509111558 61 213 0.9 6.1 0.00 0.00 0.00 53 1021.0
20260509110108 61 107 2.6 5.2 0.00 0.00 0.00 52 1021.1
20260509104555 63 122 2.6 6.1 0.00 0.00 0.00 49 1021.1
20260509103102 59 111 0.0 7.0 0.00 0.00 0.00 56 1021.2
20260509101604 61 109 2.6 7.8 0.00 0.00 0.00 51 1021.3
20260509100052 59 350 0.9 3.5 0.00 0.00 0.00 56 1021.4
20260509094603 62 68 0.9 3.5 0.00 0.00 0.00 57 1021.4
20260509093050 60 81 0.0 2.6 0.00 0.00 0.00 55 1021.5
20260509091548 60 76 1.7 3.5 0.00 0.00 0.00 59 1021.5
20260509090054 59 76 2.6 4.3 0.00 0.00 0.00 61 1021.5
20260509084547 59 298 0.9 5.2 0.00 0.00 0.00 61 1021.6
20260509083052 58 100 0.9 6.1 0.00 0.00 0.00 66 1021.6
20260509081537 57 71 0.9 3.5 0.00 0.00 0.00 68 1021.6
20260509080036 57 96 0.0 3.5 0.00 0.00 0.00 70 1021.6
20260509074532 56 70 0.9 4.3 0.00 0.00 0.00 70 1021.6
20260509073031 54 76 0.0 2.6 0.00 0.00 0.00 73 1021.6
20260509071533 53 58 0.0 2.6 0.00 0.00 0.00 75 1021.5
20260509070020 52 34 0.0 1.7 0.00 0.00 0.00 77 1021.5
20260509064517 50 33 0.0 1.7 0.00 0.00 0.00 84 1021.4
20260509063020 48 110 0.0 0.0 0.00 0.00 0.00 93 1021.4
20260509061508 47 110 0.0 0.0 0.00 0.00 0.00 94 1021.4
20260509060006 46 110 0.0 0.0 0.00 0.00 0.00 94 1021.4
20260509054503 45 110 0.0 0.0 0.00 0.00 0.00 94 1021.4
20260509053134 44 57 0.0 0.0 0.00 0.00 0.00 93 1021.4
20260509051558 43 57 0.0 0.0 0.00 0.00 0.00 92 1021.4
20260509050056 43 57 0.0 0.0 0.00 0.00 0.00 92 1021.1
20260509044632 42 57 0.0 0.0 0.00 0.00 0.00 91 1021.1
20260509043132 42 57 0.0 0.0 0.00 0.00 0.00 90 1021.1
20260509041550 42 57 0.0 0.0 0.00 0.00 0.00 90 1021.0
20260509040048 42 57 0.0 0.0 0.00 0.00 0.00 89 1021.0
20260509034539 43 57 0.0 0.0 0.00 0.00 0.00 87 1021.0
20260509033031 43 57 0.0 0.0 0.00 0.00 0.00 86 1021.0
20260509031544 44 57 0.0 0.0 0.00 0.00 0.00 85 1020.9
20260509030041 46 57 0.0 0.0 0.00 0.00 0.00 84 1021.0